Location: ????????
(54.7447°N, 39.3441°E)
Time: 05:42:38
(UTC+00:00)

Daily predictions for brighter satellites

Satellite Brightness Start Highest point End
(mag) Time Altitude Azimuth Time Altitude Azimuth Time Altitude Azimuth
KORONAS-FOTON 4.4 00:05:10 27° WSW 00:06:09 34° WNW 00:09:16 10° N
USA 290 3.5 00:05:18 17° SSE 00:07:12 33° ESE 00:10:06 10° NE
Cosmos 372 Rocket 4.1 00:02:14 10° NNW 00:07:27 76° ENE 00:12:35 10° SSE
DMSP B5D2-2 4.0 00:04:40 10° S 00:09:49 67° WSW 00:15:01 10° NNW
Meteor 2-6 Rocket 4.5 00:06:55 21° SW 00:10:45 59° WNW 00:16:37 10° N
Cosmos 1536 4.3 00:09:35 10° NW 00:11:59 17° W 00:12:16 17° W
IDEFIX/ARIANE 42P 3.0 00:08:23 10° N 00:13:21 47° WNW 00:16:41 20° SW
Cosmos 1812 Rocket 3.5 00:12:34 20° SSW 00:15:28 76° WNW 00:19:51 10° N
Meteor 2-20 4.5 00:10:34 14° S 00:15:56 88° W 00:22:07 10° NNE
Envisat 3.1 00:11:33 10° NNE 00:16:39 75° ESE 00:21:15 13° S
COSMOS 2441 4.3 00:12:13 10° NNE 00:17:02 76° WNW 00:20:35 18° SSW
ATLAS 2AS CENTAUR R/B 3.7 00:11:29 10° W 00:18:00 43° NNW 00:24:27 10° ENE
Aureole 1 Rocket 3.0 00:14:28 10° NNW 00:18:25 71° WSW 00:23:22 10° SSE
USA 234 3.3 00:16:01 10° SE 00:22:27 58° SW 00:28:55 10° WNW
JB-3 4.2 00:22:49 10° SSE 00:26:25 80° ENE 00:30:02 10° NNW
Cosmos 2084 Rocket 4.0 00:23:09 10° WNW 00:26:58 34° SW 00:30:48 10° SSE
Meteor 1-27 Rocket 4.0 00:21:26 10° S 00:27:22 74° E 00:33:16 10° NNE
Iridium 4 Rocket 3.4 00:23:28 14° SSW 00:27:29 70° W 00:32:39 10° N
ADEOS II 2.6 00:24:18 10° NNE 00:29:29 59° ESE 00:34:39 10° S
Cosmos 990 Rocket 4.4 00:25:22 10° NW 00:30:07 39° WSW 00:34:52 10° S
MOZ.5/SAFIR/RUBIN 5/SL-8 4.5 00:27:09 17° SSW 00:30:13 34° W 00:34:29 10° NNW
SWARM A 4.2 00:28:07 10° N 00:31:20 57° W 00:33:48 16° SSW
Cosmos 1707 4.4 00:31:24 11° W 00:32:12 12° WNW 00:33:18 10° NW
Cosmos 44 Rocket 4.0 00:29:47 14° WSW 00:33:58 52° NW 00:39:05 10° NE
H-2A R/B 2.4 00:31:28 12° S 00:34:40 45° W 00:38:08 10° NNW
ADEOS Rocket 3.7 00:27:27 10° NNE 00:34:48 63° WNW 00:41:53 12° SW
Cosmos 1975 3.9 00:32:01 10° NW 00:34:55 23° W 00:36:20 18° WSW
ALOS 2.2 00:32:17 10° NNE 00:36:53 86° ESE 00:41:26 10° SSW
COSMOS 2406 3.8 00:32:29 15° WSW 00:37:03 49° NW 00:42:39 10° NNE
SL-16 R/B 3.0 00:31:02 10° SSE 00:37:14 68° ENE 00:43:28 10° NNW
CZ-2D R/B 2.1 00:32:23 10° NNE 00:37:40 86° ESE 00:42:59 10° SSW
Cosmos 1763 Rocket 3.5 00:33:22 15° SSW 00:37:43 77° WNW 00:43:03 10° NNE
COSMOS 2428 3.0 00:32:01 10° NNW 00:37:46 73° NE 00:43:28 10° SE
Cosmos 1842 Rocket 4.5 00:33:42 10° SSE 00:37:50 48° E 00:42:00 10° NNE
Alouette 2 Rocket 3.4 00:35:06 10° NNW 00:39:26 59° W 00:42:58 10° S
Cosmos 1238 Rocket 2.0 00:39:50 13° S 00:42:17 89° W 00:45:22 10° N
Okean 3 Rocket 4.0 00:42:41 10° N 00:47:07 66° ENE 00:51:33 10° SSE
Sich 1 3.3 00:43:37 10° N 00:47:47 68° ENE 00:51:54 10° SSE
Cosmos 1898 Rocket 3.4 00:42:59 10° NNW 00:48:09 73° WSW 00:53:18 10° SSE
SL-19 R/B 4.5 00:44:29 10° NNE 00:50:09 82° ESE 00:56:05 10° SSW
Cosmos 1937 Rocket 3.5 00:47:36 10° NNW 00:52:51 86° WSW 00:58:01 10° SSE
Cosmos 2360 Rocket 3.1 00:48:30 10° NW 00:53:11 27° WSW 00:57:53 10° SSW
Cosmos 1607 4.4 00:47:22 11° WSW 00:53:12 54° NNW 00:59:24 10° NE
Cosmos 1758 4.1 00:49:55 10° N 00:53:30 49° ENE 00:57:02 10° SSE
Cosmos 2333 Rocket 3.6 00:50:15 10° WNW 00:53:51 17° W 00:57:04 11° SW
Meteor 2-10 Rocket 3.5 00:56:10 10° NNW 01:01:15 77° WSW 01:06:29 10° S
Cosmos 1553 Rocket 4.2 00:58:23 10° S 01:04:34 78° E 01:10:55 10° NNE
Cosmos 2082 Rocket 3.8 01:00:34 10° W 01:05:18 26° NNW 01:10:04 10° NNE
Resurs 1-4 Rocket 2.4 01:01:17 10° N 01:06:29 56° WNW 01:11:39 10° SW
Cosmos 540 Rocket 3.8 01:01:37 11° SW 01:06:31 54° WNW 01:11:35 10° NNE
H-2A R/B 3.0 01:03:34 10° NNE 01:07:27 43° E 01:11:15 10° S
Cosmos 2322 Rocket 3.4 01:04:14 10° NW 01:08:14 20° W 01:12:14 10° SSW
Cosmos 2221 4.0 01:07:42 10° WSW 01:10:51 21° WNW 01:14:02 10° NNW
Cosmos 468 Rocket 4.1 01:07:07 10° SSW 01:12:24 76° WNW 01:17:44 10° NNE
ACS3 Solar Sail 3.6 01:09:35 10° NNW 01:13:01 16° NW 01:16:29 10° W
CZ-2C R/B 4.0 01:11:18 10° NNE 01:15:50 36° E 01:20:12 10° SSE
Cosmos 1833 4.3 01:12:27 10° SW 01:18:10 71° NW 01:23:51 10° NNE
USA 305 -0.5 01:16:38 10° W 01:18:26 64° S 01:19:18 10° ESE
Cosmos 1766 Rocket 4.4 01:14:58 10° NNW 01:18:46 29° W 01:22:30 10° SSW
NOSS 3-3 (A) 4.4 01:14:41 10° WSW 01:20:12 57° NNW 01:26:59 10° NE
Cosmos 1340 Rocket 4.0 01:17:04 10° N 01:20:41 44° ENE 01:24:18 10° SE
H-2A R/B 2.2 01:16:13 10° N 01:21:13 58° WNW 01:26:20 10° SW
Cosmos 2219 Rocket 3.1 01:17:54 10° NW 01:22:28 26° WSW 01:27:02 10° SSW
Cosmos 2237 Rocket 2.6 01:17:14 10° NNW 01:22:58 71° NE 01:28:38 10° SE
Cosmos 1980 4.0 01:19:08 10° NNW 01:24:49 77° NE 01:30:28 10° SE
USA 267 3.4 01:19:46 10° ENE 01:26:22 80° SSE 01:32:58 10° WSW
BREEZE-M DEB (TANK) 4.4 01:22:05 10° WSW 01:40:00 53° S 01:44:12 10° E
